Location: Marstown
(39.5056°N, 77.0820°W)
Time: 00:25:28
(UTC-04:00)

Envisat - Visible Passes

Search period start: 25 September 2017 00:00
Search period end: 05 October 2017 00:00
Orbit: 764 x 766 km, 98.2° (Epoch: 24 September)

Date Brightness Start Highest point End Pass type
(mag) Time Alt. Az. Time Alt. Az. Time Alt. Az.
25 Sep 3.5 20:21:01 26° ESE 20:23:15 39° ENE 20:27:57 10° N visible
25 Sep 5.0 22:01:14 21° WSW 22:02:21 23° W 22:06:22 10° NW visible
26 Sep 4.4 19:44:02 12° ESE 19:46:52 18° ENE 19:50:18 10° NNE visible
26 Sep 3.6 21:24:15 42° SW 21:25:27 52° W 21:30:25 10° NNW visible
27 Sep 2.9 20:47:16 45° SE 20:48:44 69° ENE 20:53:48 10° N visible
27 Sep 5.7 22:27:30 12° W 22:28:13 13° W 22:30:26 10° WNW visible
28 Sep 3.8 20:10:18 24° ESE 20:12:13 31° ENE 20:16:39 10° N visible
28 Sep 4.6 21:50:31 28° WSW 21:51:11 29° W 21:55:35 10° NW visible
29 Sep 4.6 19:33:19 10° E 19:35:54 15° ENE 19:38:40 10° NNE visible
29 Sep 3.2 21:13:32 57° SSW 21:14:20 67° WSW 21:19:24 10° NNW visible
30 Sep 3.1 20:36:34 45° ESE 20:37:41 54° ENE 20:42:38 10° N visible
30 Sep 5.4 22:16:46 16° W 22:17:00 16° W 22:20:10 10° NW visible
01 Oct 4.0 19:59:35 21° E 20:01:13 25° ENE 20:05:18 10° NNE visible
01 Oct 4.2 21:39:48 37° WSW 21:40:01 37° W 21:44:43 10° NNW visible
02 Oct 4.8 19:23:14 10° E 19:24:58 12° ENE 19:26:41 10° NE visible
02 Oct 2.9 21:02:50 76° S 21:03:13 85° WSW 21:08:20 10° NNW visible
03 Oct 3.3 20:25:51 40° E 20:26:38 43° ENE 20:31:24 10° N visible
03 Oct 5.2 22:06:05 21° W 22:06:05 21° W 22:09:36 10° NW visible
04 Oct 4.3 19:48:53 18° E 19:50:13 20° ENE 19:53:52 10° NNE visible
04 Oct 3.8 21:29:06 47° W 21:29:06 47° W 21:33:47 10° NNW visible
